TimeMST,TemperatureF,Dew PointF,Humidity,Sea Level PressureIn,VisibilityMPH,Wind Direction,Wind SpeedMPH,Gust SpeedMPH,PrecipitationIn,Events,Conditions,WindDirDegrees,DateUTC
12:58 AM,76.1,4.6,6,29.94,10.0,North,12.7,-,N/A,,Clear,360,2013-05-02 07:58:00
1:58 AM,76.3,4.8,6,29.96,10.0,NNE,16.1,-,N/A,,Clear,20,2013-05-02 08:58:00
2:58 AM,74.7,3.4,6,29.99,10.0,NNE,23.0,31.1,N/A,,Clear,20,2013-05-02 09:58:00
3:58 AM,72.7,2.1,6,30.01,10.0,NNE,18.4,-,N/A,,Clear,20,2013-05-02 10:58:00
4:58 AM,70.5,3.9,7,30.04,10.0,NNE,16.1,-,N/A,,Clear,20,2013-05-02 11:58:00
5:58 AM,69.6,5.4,8,30.07,10.0,NNE,18.4,25.3,N/A,,Clear,20,2013-05-02 12:58:00
6:58 AM,70.7,6.8,8,30.08,10.0,NNE,26.5,32.2,N/A,,Clear,20,2013-05-02 13:58:00
7:58 AM,73.2,8.2,8,30.12,10.0,NNE,27.6,33.4,N/A,,Clear,20,2013-05-02 14:58:00
8:58 AM,76.6,8.4,7,30.16,10.0,NNE,25.3,29.9,N/A,,Clear,30,2013-05-02 15:58:00
9:58 AM,79.9,10.9,7,30.13,10.0,NNE,18.4,-,N/A,,Clear,20,2013-05-02 16:58:00
10:43 AM,82.4,8.6,6,30.15,10.0,North,12.7,-,N/A,,Clear,10,2013-05-02 17:43:00
10:48 AM,82.4,8.6,6,30.15,10.0,NE,15.0,-,N/A,,Clear,50,2013-05-02 17:48:00
10:58 AM,83.1,9.9,6,30.11,10.0,ENE,15.0,21.9,N/A,,Partly Cloudy,60,2013-05-02 17:58:00
11:31 AM,84.2,10.4,6,30.13,10.0,ENE,12.7,19.6,N/A,,Partly Cloudy,70,2013-05-02 18:31:00
11:58 AM,85.6,10.9,6,30.09,10.0,NE,18.4,21.9,N/A,,Scattered Clouds,50,2013-05-02 18:58:00
12:58 PM,87.4,9.0,5,30.06,10.0,ENE,10.4,-,N/A,,Partly Cloudy,70,2013-05-02 19:58:00
1:58 PM,89.8,10.6,5,30.04,10.0,NE,12.7,-,N/A,,Partly Cloudy,50,2013-05-02 20:58:00
2:58 PM,91.0,11.5,5,30.01,10.0,NNE,12.7,18.4,N/A,,Clear,30,2013-05-02 21:58:00
3:58 PM,92.1,10.4,5,29.98,10.0,NNE,16.1,-,N/A,,Clear,20,2013-05-02 22:58:00
4:58 PM,92.3,11.5,5,29.96,10.0,NE,10.4,-,N/A,,Clear,50,2013-05-02 23:58:00
5:58 PM,91.4,14.4,6,29.95,10.0,NE,9.2,-,N/A,,Clear,40,2013-05-03 00:58:00
6:58 PM,88.2,15.1,7,29.97,10.0,NNE,6.9,-,N/A,,Clear,20,2013-05-03 01:58:00
7:58 PM,81.1,23.9,12,29.95,10.0,North,8.1,-,N/A,,Clear,350,2013-05-03 02:58:00
8:58 PM,81.7,9.5,6,29.97,10.0,North,12.7,-,N/A,,Clear,10,2013-05-03 03:58:00
9:58 PM,80.1,3.6,5,29.98,10.0,NNE,10.4,-,N/A,,Clear,20,2013-05-03 04:58:00
10:58 PM,77.0,5.2,6,29.98,10.0,NNE,12.7,-,N/A,,Clear,20,2013-05-03 05:58:00
11:58 PM,76.1,4.6,6,29.99,10.0,NNE,13.8,-,N/A,,Clear,30,2013-05-03 06:58:00